Regional Weather Roundup
Issued by NWS

Home | Current Version | Previous Version | Text Only | Print | Product List | Glossary On
Versions: 1 2 3 4 5 6 7 8 9 10 11 12 13 14 15 16 17 18 19 20 21 22 23 24 25 26 27 28 29 30 31 32 33 34 35 36 37 38 39 40 41 42 43 44 45 46 47 48 49 50
000
ASUS46 KPQR 280910
RWROR

OREGON REGIONAL WEATHER ROUNDUP
NATIONAL WEATHER SERVICE PORTLAND OR
200 AM PDT WED SEP 28 2016

NOTE: "FAIR" INDICATES FEW OR NO CLOUDS BELOW 12,000 FEET WITH
NO SIGNIFICANT WEATHER AND/OR OBSTRUCTIONS TO VISIBILITY.

ORZ001>013-281000-
NORTHWEST OREGON


CITY           SKY/WX    TMP DP  RH WIND       PRES   REMARKS
ASTORIA        CLOUDY    53  50  89 CALM      30.10S
NEWPORT        PTCLDY    45  45 100 CALM      30.10S FOG
PORTLAND       CLEAR     57  41  55 NW10      30.06R
VANCOUVER WA   CLEAR     58  40  51 NW6       30.05S
SCAPPOOSE      PTCLDY    58  40  51 N7        30.05S
HILLSBORO      CLEAR     54  46  74 NW7       30.05S
AURORA         CLEAR     53  48  83 NE3       30.06S
MCMINNVILLE    CLEAR     58  43  57 N3        30.06S
SALEM          CLEAR     56  49  77 N5        30.04S
CORVALLIS        N/A     55  46  71 NW5       30.06R
EUGENE         CLEAR     54  47  77 N8        30.04S
$$

ORZ021-028-281000-
SOUTHWEST OREGON


CITY           SKY/WX    TMP DP  RH WIND       PRES   REMARKS
NORTH BEND       N/A     52  50  93 N6        30.06S VSB 1/2
BROOKINGS      CLEAR     53  51  93 CALM      29.96S
ROSEBURG       CLEAR     63  50  62 CALM      30.02S
SEXTON SUMMIT  CLEAR     53  49  86 N7        30.06S
MEDFORD        CLEAR     63  52  67 CALM      29.98S
$$

ORZ014>016-041-281000-
COLUMBIA GORGE


CITY           SKY/WX    TMP DP  RH WIND       PRES   REMARKS
TROUTDALE      CLEAR     53  51  93 CALM      30.05S
THE DALLES     CLEAR     61  51  70 VRB3      29.99S
$$

ORZ029>031-041-044-049-050-061>064-502-503-505>511-281000-
EASTERN OREGON


CITY           SKY/WX    TMP DP  RH WIND       PRES   REMARKS
REDMOND        CLEAR     49  41  74 CALM      30.05S
BEND           CLEAR     52  43  71 CALM      30.07S
PRINEVILLE     CLEAR     54  43  66 S3        30.06S
KLAMATH FALLS  CLEAR     47  40  76 E3        30.06S
LAKEVIEW       CLEAR     45  30  57 NW3       30.10S
HERMISTON      CLEAR     56  45  66 CALM      29.98S
PENDLETON      CLEAR     54  44  69 CALM      30.00S
JOHN DAY       CLEAR     61  41  49 CALM      30.07S
MEACHAM        CLEAR     43  38  82 CALM      30.09S
LA GRANDE      CLEAR     55  37  50 CALM      30.05S
BAKER CITY     CLEAR     45  40  82 CALM      30.08R
BURNS          CLEAR     50  33  52 W9        30.07F
ROME             N/A     57  35  43 E6        30.05S
ONTARIO        CLEAR     52  43  71 W5        30.02R
$$



USA.gov is the U.S. government's official web portal to all federal, state and local government web resources and services.